Ypsilanti, MI

10:23 PM EST on December 09, 2016 (GMT -0500)
Willow Run

Weather History for KYIP - April, 2013

Change the Weather History Date:

Monday, April 15, 2013

  Actual Average Record
Temperature  
Mean Temperature 53 °F -  
Max Temperature 73 °F 60 °F 84 °F (2002)
Min Temperature 35 °F 39 °F 28 °F (2008)
Degree Days  
Heating Degree Days 12    
Growing Degree Days 3 (Base 50)    
Moisture  
Dew Point 43 °F    
Average Humidity 62    
Maximum Humidity 82    
Minimum Humidity 45    
Precipitation  
Precipitation 0.00 in - - ()
Sea Level Pressure  
Sea Level Pressure 29.93 in    
Wind  
Wind Speed 9 mph (SSE)    
Max Wind Speed 22 mph    
Max Gust Speed 28 mph    
Visibility 10 miles    
Events      
Averages and records for this station are not official NWS values.
T = Trace of Precipitation, MM = Missing Value Source: NWS Daily Summary

Daily Weather History Graph

Daily Weather History Graph

Search for Another Location

Airport or City:

Trip Planner

Search our weather history database for the weather conditions in past years. The results will help you decide how hot, cold, wet, or windy it might be!

Date:

Astronomy

Apr. 15, 2013 Rise Set
Actual Time 6:52 AM EDT 8:15 PM EDT
Civil Twilight 6:23 AM EDT 8:45 PM EDT
Nautical Twilight 5:48 AM EDT 9:20 PM EDT
Astronomical Twilight 5:11 AM EDT 9:57 PM EDT
Moon 10:14 AM EDT (4/15) 12:30 AM EDT (4/15)
Length of Visible Light 14h 21m
Length of Day
13h 22m
Waxing Crescent, 24% of the Moon is Illuminated
Apr 15
Waxing Crescent
Apr 18
First Quarter
Apr 25
Full
May 2
Last Quarter
May 9
New

Hourly Weather History & Observations

Time (EDT) Temp. Windchill Dew Point Humidity Pressure Visibility Wind Dir Wind Speed Gust Speed Precip Events Conditions
12:53 AM 42.1 °F 37.1 °F 32.0 °F 67% 29.94 in 10.0 mi East 8.1 mph - N/A   Clear
1:53 AM 39.0 °F 34.8 °F 32.0 °F 76% 29.93 in 10.0 mi ENE 5.8 mph - N/A   Clear
2:53 AM 39.0 °F 35.7 °F 30.9 °F 73% 29.92 in 10.0 mi ENE 4.6 mph - N/A   Clear
3:53 AM 37.9 °F 35.5 °F 32.0 °F 79% 29.93 in 10.0 mi ENE 3.5 mph - N/A   Clear
4:53 AM 37.9 °F 35.5 °F 32.0 °F 79% 29.94 in 10.0 mi NNE 3.5 mph - N/A   Clear
5:53 AM 36.0 °F 33.3 °F 30.9 °F 82% 29.96 in 8.0 mi NNE 3.5 mph - N/A   Clear
6:53 AM 35.1 °F 32.2 °F 30.0 °F 82% 29.97 in 6.0 mi NE 3.5 mph - N/A   Haze
7:53 AM 43.0 °F - 36.0 °F 76% 29.96 in 6.0 mi Calm Calm - N/A   Haze
8:53 AM 50.0 °F - 39.0 °F 66% 29.95 in 10.0 mi SE 9.2 mph - N/A   Clear
9:53 AM 55.9 °F - 42.1 °F 60% 29.98 in 10.0 mi SW 5.8 mph - N/A   Clear
10:53 AM 63.0 °F - 46.0 °F 54% 29.96 in 10.0 mi South 12.7 mph - N/A   Clear
11:53 AM 69.1 °F - 48.0 °F 47% 29.94 in 10.0 mi SSW 21.9 mph 25.3 mph N/A   Clear
12:53 PM 71.1 °F - 48.9 °F 45% 29.93 in 10.0 mi South 19.6 mph 24.2 mph N/A   Partly Cloudy
1:53 PM 71.1 °F - 48.9 °F 45% 29.92 in 10.0 mi South 18.4 mph 27.6 mph N/A   Mostly Cloudy
2:53 PM 70.0 °F - 48.9 °F 47% 29.91 in 10.0 mi South 16.1 mph - N/A   Overcast
3:53 PM 70.0 °F - 48.9 °F 47% 29.89 in 10.0 mi South 15.0 mph - N/A   Overcast
4:53 PM 70.0 °F - 50.0 °F 49% 29.88 in 10.0 mi South 15.0 mph 20.7 mph N/A   Mostly Cloudy
5:53 PM 70.0 °F - 50.0 °F 49% 29.88 in 10.0 mi South 13.8 mph - N/A   Overcast
6:53 PM 68.0 °F - 51.1 °F 55% 29.91 in 10.0 mi SSW 10.4 mph - N/A   Overcast
7:53 PM 66.9 °F - 51.1 °F 57% 29.91 in 10.0 mi South 11.5 mph - N/A   Overcast
8:53 PM 64.9 °F - 51.1 °F 61% 29.91 in 10.0 mi South 6.9 mph - N/A   Mostly Cloudy
9:53 PM 64.0 °F - 53.1 °F 67% 29.93 in 10.0 mi South 10.4 mph - 0.00 in   Overcast
10:53 PM 64.0 °F - 52.0 °F 65% 29.92 in 10.0 mi South 10.4 mph - 0.00 in   Overcast
11:53 PM 64.0 °F - 51.1 °F 63% 29.90 in 10.0 mi South 12.7 mph - N/A   Overcast